Location: Hains Lake
(37.8540°N, 99.8578°W)
Time: 08:20:58
(UTC+00:00)

Cosmos 1536 - Pass Details

Date: 11 December 2019
Orbit: 540 x 559 km, 82.5° (Epoch: 21 January)

Event Time Altitude Azimuth Distance (km) Brightness Sun altitude
Rises 13:05:16 0° 189° (S) 2,730 6.6 -7.8°
Reaches altitude 10° 13:07:26 10° 191° (S) 1,840 5.7 -7.5°
Maximum altitude 13:11:29 77° 277° (W) 579 2.8 -6.7°
Drops below altitude 10° 13:15:33 10° 4° (N) 1,851 5.3 -6.0°
Sets 13:17:44 0° 6° (N) 2,749 6.2 -5.6°
